User: anonymous
Location: Thompson
(55.7500°N, 97.8670°W)
Time: 14:03:43
(UTC-05:00)
Language:

Cosmos 1833 Rocket - Orbit

View from above orbital plane
View from above orbital plane
View from above satellite
View from above satellite

Ground track
Ground track

The orbit data is extracted from the following two-line orbital elements,

1 17590U 87027B   14106.87252436  .00000283  00000-0  16552-3 0  6571
2 17590 071.0040 066.8129 0007255 270.3954 089.6338 14.16628170400217
Epoch (UTC): 16 April 2014 20:56:26
Eccentricity: 0.0007255
inclination: 71.0040°
perigee height: 831 km
apogee height: 842 km
right ascension of ascending node: 66.8129°
argument of perigee: 270.3954°
revolutions per day: 14.16628170
mean anomaly at epoch: 89.6338°
orbit number at epoch: 40021

The dashed part of the orbit path shows where the satellite is in the earth's shadow,  

DLR